Time,TemperatureF,DewpointF,PressureIn,WindDirection,WindDirectionDegrees,WindSpeedMPH,WindSpeedGustMPH,Humidity,HourlyPrecipIn,Conditions,Clouds,dailyrainin,SoftwareType,DateUTC
2013-04-03 00:05:00,47.5,47.0,30.16,WNW,295,1.0,1.0,98,0.00,,,0.00,weatherlink.com 1.10,2013-04-03 07:05:00,
2013-04-03 00:20:00,47.2,47.0,30.16,SW,219,1.0,2.0,98,0.00,,,0.00,weatherlink.com 1.10,2013-04-03 07:20:00,
2013-04-03 00:35:00,47.1,47.0,30.16,SSW,207,0.0,2.0,98,0.00,,,0.00,weatherlink.com 1.10,2013-04-03 07:35:00,
2013-04-03 00:50:00,47.1,47.0,30.16,SSW,196,0.0,2.0,98,0.00,,,0.00,weatherlink.com 1.10,2013-04-03 07:50:00,
2013-04-03 01:05:00,46.9,46.0,30.16,South,182,1.0,2.0,98,0.00,,,0.00,weatherlink.com 1.10,2013-04-03 08:05:00,
2013-04-03 01:20:00,46.8,46.0,30.15,SSE,164,1.0,2.0,98,0.00,,,0.00,weatherlink.com 1.10,2013-04-03 08:20:00,
2013-04-03 01:36:00,46.6,46.0,30.14,SE,130,3.0,3.0,98,0.00,,,0.00,weatherlink.com 1.10,2013-04-03 08:36:00,
2013-04-03 01:51:00,46.7,46.0,30.14,SW,217,2.0,4.0,98,0.00,,,0.00,weatherlink.com 1.10,2013-04-03 08:51:00,
2013-04-03 02:06:00,46.7,46.0,30.13,ESE,109,1.0,2.0,98,0.00,,,0.00,weatherlink.com 1.10,2013-04-03 09:06:00,
2013-04-03 02:21:00,46.3,46.0,30.13,SE,134,0.0,4.0,98,0.00,,,0.00,weatherlink.com 1.10,2013-04-03 09:21:00,
2013-04-03 02:36:00,46.3,46.0,30.12,SE,134,2.0,3.0,98,0.00,,,0.00,weatherlink.com 1.10,2013-04-03 09:36:00,
2013-04-03 03:36:00,46.2,46.0,30.11,SE,128,1.0,3.0,98,0.00,,,0.00,weatherlink.com 1.10,2013-04-03 10:36:00,
2013-04-03 04:21:00,45.3,45.0,30.11,ESE,103,1.0,2.0,99,0.00,,,0.00,weatherlink.com 1.10,2013-04-03 11:21:00,
2013-04-03 04:51:00,44.7,45.0,30.11,ESE,114,1.0,1.0,99,0.00,,,0.00,weatherlink.com 1.10,2013-04-03 11:51:00,
2013-04-03 05:06:00,44.2,44.0,30.11,ESE,114,0.0,1.0,99,0.00,,,0.00,weatherlink.com 1.10,2013-04-03 12:06:00,
2013-04-03 05:21:00,44.0,44.0,30.10,ESE,114,1.0,1.0,98,0.00,,,0.00,weatherlink.com 1.10,2013-04-03 12:21:00,
2013-04-03 05:36:00,43.9,43.0,30.10,ESE,114,0.0,1.0,98,0.00,,,0.00,weatherlink.com 1.10,2013-04-03 12:36:00,
2013-04-03 05:51:00,44.4,44.0,30.10,ESE,114,0.0,2.0,99,0.00,,,0.00,weatherlink.com 1.10,2013-04-03 12:51:00,
2013-04-03 06:06:00,44.4,44.0,30.10,ENE,77,0.0,2.0,99,0.00,,,0.00,weatherlink.com 1.10,2013-04-03 13:06:00,
2013-04-03 06:36:00,44.0,44.0,30.10,ENE,77,1.0,3.0,99,0.00,,,0.00,weatherlink.com 1.10,2013-04-03 13:36:00,
2013-04-03 06:51:00,44.2,44.0,30.12,ENE,77,0.0,1.0,99,0.00,,,0.00,weatherlink.com 1.10,2013-04-03 13:51:00,
2013-04-03 07:06:00,44.4,44.0,30.13,ENE,64,1.0,2.0,99,0.00,,,0.00,weatherlink.com 1.10,2013-04-03 14:06:00,
2013-04-03 07:21:00,44.4,44.0,30.12,NW,325,1.0,2.0,99,0.00,,,0.00,weatherlink.com 1.10,2013-04-03 14:21:00,
2013-04-03 07:36:00,44.3,44.0,30.13,SW,227,1.0,2.0,99,0.00,,,0.00,weatherlink.com 1.10,2013-04-03 14:36:00,
2013-04-03 07:51:00,44.5,44.0,30.12,SE,143,0.0,2.0,99,0.00,,,0.00,weatherlink.com 1.10,2013-04-03 14:51:00,
2013-04-03 08:06:00,44.9,45.0,30.12,SE,130,1.0,3.0,99,0.00,,,0.00,weatherlink.com 1.10,2013-04-03 15:06:00,
2013-04-03 08:21:00,45.3,45.0,30.12,SSW,195,1.0,1.0,99,0.00,,,0.00,weatherlink.com 1.10,2013-04-03 15:21:00,
2013-04-03 08:36:00,46.6,46.0,30.12,East,81,0.0,3.0,99,0.00,,,0.00,weatherlink.com 1.10,2013-04-03 15:36:00,
2013-04-03 08:51:00,46.7,47.0,30.13,South,190,1.0,2.0,99,0.00,,,0.00,weatherlink.com 1.10,2013-04-03 15:51:00,
2013-04-03 09:06:00,47.7,48.0,30.13,South,182,1.0,2.0,99,0.00,,,0.00,weatherlink.com 1.10,2013-04-03 16:06:00,
2013-04-03 09:21:00,47.7,48.0,30.13,WNW,285,1.0,4.0,99,0.00,,,0.00,weatherlink.com 1.10,2013-04-03 16:21:00,
2013-04-03 09:36:00,47.8,48.0,30.13,West,273,0.0,2.0,99,0.00,,,0.00,weatherlink.com 1.10,2013-04-03 16:36:00,
2013-04-03 09:51:00,49.5,49.0,30.13,SE,124,0.0,2.0,99,0.00,,,0.00,weatherlink.com 1.10,2013-04-03 16:51:00,
2013-04-03 10:06:00,50.5,50.0,30.12,SSW,195,2.0,3.0,99,0.00,,,0.00,weatherlink.com 1.10,2013-04-03 17:06:00,
2013-04-03 10:21:00,52.3,52.0,30.12,SSW,205,2.0,4.0,99,0.00,,,0.00,weatherlink.com 1.10,2013-04-03 17:21:00,
2013-04-03 10:37:00,54.2,53.0,30.12,West,270,1.0,4.0,94,0.00,,,0.00,weatherlink.com 1.10,2013-04-03 17:37:00,
2013-04-03 10:52:00,56.9,54.0,30.11,South,191,1.0,3.0,91,0.00,,,0.00,weatherlink.com 1.10,2013-04-03 17:52:00,
2013-04-03 11:07:00,59.7,55.0,30.11,WNW,287,2.0,4.0,84,0.00,,,0.00,weatherlink.com 1.10,2013-04-03 18:07:00,
2013-04-03 11:22:00,60.0,54.0,30.10,SW,230,2.0,4.0,81,0.00,,,0.00,weatherlink.com 1.10,2013-04-03 18:22:00,
2013-04-03 11:37:00,62.8,56.0,30.10,WSW,240,1.0,3.0,78,0.00,,,0.00,weatherlink.com 1.10,2013-04-03 18:37:00,
2013-04-03 11:52:00,63.9,55.0,30.09,West,278,0.0,3.0,74,0.00,,,0.00,weatherlink.com 1.10,2013-04-03 18:52:00,
2013-04-03 12:07:00,64.1,56.0,30.09,SSW,192,0.0,3.0,74,0.00,,,0.00,weatherlink.com 1.10,2013-04-03 19:07:00,
2013-04-03 12:22:00,65.7,56.0,30.08,SSW,194,2.0,4.0,71,0.00,,,0.00,weatherlink.com 1.10,2013-04-03 19:22:00,
2013-04-03 12:37:00,68.4,56.0,30.07,ESE,107,2.0,4.0,64,0.00,,,0.00,weatherlink.com 1.10,2013-04-03 19:37:00,
2013-04-03 12:52:00,70.5,55.0,30.06,SSW,209,3.0,8.0,59,0.00,,,0.00,weatherlink.com 1.10,2013-04-03 19:52:00,
2013-04-03 13:07:00,71.2,54.0,30.06,SW,228,2.0,7.0,54,0.00,,,0.00,weatherlink.com 1.10,2013-04-03 20:07:00,
2013-04-03 13:22:00,72.3,51.0,30.05,East,96,2.0,8.0,47,0.00,,,0.00,weatherlink.com 1.10,2013-04-03 20:22:00,
2013-04-03 13:37:00,72.9,52.0,30.04,South,189,4.0,9.0,48,0.00,,,0.00,weatherlink.com 1.10,2013-04-03 20:37:00,
2013-04-03 13:52:00,73.8,53.0,30.03,SE,143,4.0,10.0,48,0.00,,,0.00,weatherlink.com 1.10,2013-04-03 20:52:00,
2013-04-03 14:07:00,74.2,51.0,30.03,SSW,196,3.0,7.0,45,0.00,,,0.00,weatherlink.com 1.10,2013-04-03 21:07:00,
2013-04-03 14:25:00,73.8,51.0,30.02,SE,125,3.0,7.0,45,0.00,,,0.00,weatherlink.com 1.10,2013-04-03 21:25:00,
2013-04-03 14:37:00,75.3,52.0,30.02,SE,130,4.0,9.0,45,0.00,,,0.00,weatherlink.com 1.10,2013-04-03 21:37:00,
2013-04-03 14:52:00,75.7,50.0,30.01,SSE,155,8.0,9.0,41,0.00,,,0.00,weatherlink.com 1.10,2013-04-03 21:52:00,
2013-04-03 15:08:00,75.1,54.0,30.01,West,263,2.0,8.0,48,0.00,,,0.00,weatherlink.com 1.10,2013-04-03 22:08:00,
2013-04-03 15:23:00,74.7,55.0,30.00,WSW,252,2.0,6.0,51,0.00,,,0.00,weatherlink.com 1.10,2013-04-03 22:23:00,
2013-04-03 15:38:00,74.1,54.0,30.00,WNW,291,4.0,7.0,50,0.00,,,0.00,weatherlink.com 1.10,2013-04-03 22:38:00,
2013-04-03 15:53:00,72.7,54.0,29.99,WSW,239,2.0,7.0,53,0.00,,,0.00,weatherlink.com 1.10,2013-04-03 22:53:00,
2013-04-03 16:08:00,72.9,55.0,29.99,WSW,246,2.0,5.0,54,0.00,,,0.00,weatherlink.com 1.10,2013-04-03 23:08:00,
2013-04-03 16:23:00,71.5,56.0,29.99,SW,217,0.0,5.0,59,0.00,,,0.00,weatherlink.com 1.10,2013-04-03 23:23:00,
2013-04-03 16:38:00,70.1,54.0,29.99,West,274,1.0,4.0,57,0.00,,,0.00,weatherlink.com 1.10,2013-04-03 23:38:00,
2013-04-03 16:53:00,68.4,54.0,29.99,West,270,2.0,4.0,60,0.00,,,0.00,weatherlink.com 1.10,2013-04-03 23:53:00,
2013-04-03 17:23:00,63.3,53.0,30.00,WNW,301,1.0,4.0,68,0.00,,,0.00,weatherlink.com 1.10,2013-04-04 00:23:00,
2013-04-03 17:38:00,62.0,51.0,30.00,WNW,296,2.0,4.0,68,0.00,,,0.00,weatherlink.com 1.10,2013-04-04 00:38:00,
2013-04-03 17:53:00,59.8,51.0,30.00,WNW,302,2.0,5.0,72,0.00,,,0.00,weatherlink.com 1.10,2013-04-04 00:53:00,
2013-04-03 18:08:00,58.4,50.0,30.00,West,281,1.0,3.0,74,0.00,,,0.00,weatherlink.com 1.10,2013-04-04 01:08:00,
2013-04-03 18:23:00,57.1,50.0,30.00,WNW,288,1.0,4.0,76,0.00,,,0.00,weatherlink.com 1.10,2013-04-04 01:23:00,
2013-04-03 18:38:00,56.2,49.0,30.00,NW,311,2.0,3.0,78,0.00,,,0.00,weatherlink.com 1.10,2013-04-04 01:38:00,
2013-04-03 18:53:00,54.8,49.0,30.00,West,271,0.0,4.0,81,0.00,,,0.00,weatherlink.com 1.10,2013-04-04 01:53:00,
2013-04-03 19:08:00,54.3,49.0,30.00,NW,309,1.0,4.0,83,0.00,,,0.00,weatherlink.com 1.10,2013-04-04 02:08:00,
2013-04-03 19:23:00,53.0,48.0,30.00,NW,311,0.0,3.0,84,0.00,,,0.00,weatherlink.com 1.10,2013-04-04 02:23:00,
2013-04-03 19:40:00,52.4,48.0,29.99,NW,311,1.0,1.0,86,0.00,,,0.00,weatherlink.com 1.10,2013-04-04 02:40:00,
2013-04-03 19:53:00,52.2,49.0,29.98,NW,311,0.0,1.0,87,0.00,,,0.00,weatherlink.com 1.10,2013-04-04 02:53:00,
2013-04-03 20:08:00,51.7,48.0,29.99,South,190,1.0,2.0,88,0.00,,,0.00,weatherlink.com 1.10,2013-04-04 03:08:00,
2013-04-03 20:23:00,51.2,48.0,29.99,South,190,0.0,1.0,89,0.00,,,0.00,weatherlink.com 1.10,2013-04-04 03:23:00,
2013-04-03 20:38:00,50.9,48.0,29.99,SSE,157,2.0,2.0,90,0.00,,,0.00,weatherlink.com 1.10,2013-04-04 03:38:00,
2013-04-03 20:53:00,50.9,48.0,29.99,ENE,59,2.0,3.0,91,0.00,,,0.00,weatherlink.com 1.10,2013-04-04 03:53:00,
2013-04-03 21:08:00,51.6,49.0,29.99,SSE,148,2.0,2.0,91,0.00,,,0.00,weatherlink.com 1.10,2013-04-04 04:08:00,
2013-04-03 21:23:00,51.4,49.0,29.99,SSE,147,0.0,4.0,91,0.00,,,0.00,weatherlink.com 1.10,2013-04-04 04:23:00,
2013-04-03 21:38:00,51.6,49.0,30.00,East,93,0.0,2.0,91,0.00,,,0.00,weatherlink.com 1.10,2013-04-04 04:38:00,
2013-04-03 21:53:00,51.5,49.0,29.99,SE,140,2.0,4.0,90,0.00,,,0.00,weatherlink.com 1.10,2013-04-04 04:53:00,
2013-04-03 22:08:00,51.6,49.0,30.00,East,81,1.0,3.0,91,0.00,,,0.00,weatherlink.com 1.10,2013-04-04 05:08:00,
2013-04-03 22:23:00,51.5,49.0,30.00,WNW,294,1.0,6.0,91,0.00,,,0.00,weatherlink.com 1.10,2013-04-04 05:23:00,
2013-04-03 22:38:00,53.0,49.0,29.98,East,83,5.0,8.0,86,0.00,,,0.00,weatherlink.com 1.10,2013-04-04 05:38:00,
2013-04-03 22:53:00,54.5,49.0,29.98,ESE,107,1.0,3.0,82,0.00,,,0.00,weatherlink.com 1.10,2013-04-04 05:53:00,
2013-04-03 23:08:00,54.9,50.0,29.99,West,263,1.0,4.0,82,0.00,,,0.00,weatherlink.com 1.10,2013-04-04 06:08:00,
2013-04-03 23:23:00,54.8,48.0,29.98,SE,134,6.0,13.0,79,0.00,,,0.00,weatherlink.com 1.10,2013-04-04 06:23:00,
2013-04-03 23:39:00,57.4,47.0,29.97,East,93,3.0,7.0,69,0.00,,,0.00,weatherlink.com 1.10,2013-04-04 06:39:00,
2013-04-03 23:53:00,56.2,49.0,29.97,SSE,155,2.0,3.0,77,0.00,,,0.00,weatherlink.com 1.10,2013-04-04 06:53:00,